| time (UTC) | temp C | wind direction | speed KPH | gust KPH | rain 1hr cm | rain 24hr cm | rain mn cm | humidity % | barometer mb |
| 20260506192830 | 20 | 213 | 12.9 | 35.4 | 0.00 | 0.00 | 0.00 | 71 | 1004.8 |
| 20260506192329 | 20 | 233 | 11.3 | 25.7 | 0.00 | 0.00 | 0.00 | 70 | 1004.9 |
| 20260506191829 | 20 | 240 | 14.5 | 25.7 | 0.00 | 0.00 | 0.00 | 70 | 1004.8 |
| 20260506191329 | 20 | 209 | 14.5 | 30.6 | 0.00 | 0.00 | 0.00 | 70 | 1004.8 |
| 20260506190829 | 20 | 214 | 12.9 | 30.6 | 0.00 | 0.00 | 0.00 | 71 | 1004.6 |
| 20260506190614 | 20 | 163 | 11.3 | 22.5 | 0.00 | 0.00 | 0.00 | 71 | 1004.7 |
| 20260506185830 | 20 | 162 | 14.5 | 32.2 | 0.00 | 0.00 | 0.00 | 71 | 1004.7 |
| 20260506185330 | 20 | 187 | 16.1 | 32.2 | 0.00 | 0.00 | 0.00 | 70 | 1004.8 |
| 20260506185114 | 21 | 165 | 16.1 | 41.8 | 0.00 | 0.00 | 0.00 | 69 | 1004.8 |
| 20260506184328 | 21 | 223 | 17.7 | 41.8 | 0.00 | 0.00 | 0.00 | 68 | 1004.8 |
| 20260506183832 | 21 | 227 | 17.7 | 35.4 | 0.00 | 0.00 | 0.00 | 67 | 1004.7 |
| 20260506183332 | 21 | 218 | 17.7 | 35.4 | 0.00 | 0.00 | 0.00 | 66 | 1004.6 |
| 20260506183111 | 21 | 252 | 17.7 | 35.4 | 0.00 | 0.00 | 0.00 | 65 | 1004.7 |
| 20260506182614 | 22 | 197 | 17.7 | 40.2 | 0.00 | 0.00 | 0.00 | 63 | 1004.9 |
| 20260506181831 | 22 | 250 | 17.7 | 40.2 | 0.00 | 0.00 | 0.00 | 62 | 1004.9 |
| 20260506181330 | 22 | 263 | 16.1 | 33.8 | 0.00 | 0.00 | 0.00 | 63 | 1004.9 |
| 20260506180830 | 22 | 229 | 16.1 | 30.6 | 0.00 | 0.00 | 0.00 | 63 | 1004.9 |
| 20260506180329 | 22 | 231 | 14.5 | 30.6 | 0.00 | 0.00 | 0.00 | 63 | 1005.2 |
| 20260506175831 | 22 | 196 | 11.3 | 30.6 | 0.00 | 0.00 | 0.00 | 65 | 1005.3 |
| 20260506175329 | 21 | 226 | 11.3 | 24.1 | 0.00 | 0.00 | 0.00 | 65 | 1005.3 |
| 20260506174831 | 21 | 177 | 11.3 | 24.1 | 0.00 | 0.00 | 0.00 | 65 | 1005.0 |
| 20260506174641 | 21 | 190 | 8.0 | 25.7 | 0.00 | 0.00 | 0.00 | 66 | 1005.3 |
| 20260506174352 | 21 | 157 | 8.0 | 25.7 | 0.00 | 0.00 | 0.00 | 66 | 1005.2 |
| 20260506173329 | 21 | 186 | 8.0 | 22.5 | 0.00 | 0.00 | 0.00 | 68 | 1005.5 |
| 20260506172830 | 21 | 177 | 9.7 | 22.5 | 0.00 | 0.00 | 0.00 | 67 | 1005.4 |
| 20260506172330 | 21 | 180 | 9.7 | 20.9 | 0.00 | 0.00 | 0.00 | 69 | 1005.5 |
| 20260506171830 | 21 | 192 | 9.7 | 20.9 | 0.00 | 0.00 | 0.00 | 68 | 1005.6 |
| 20260506171331 | 21 | 188 | 11.3 | 20.9 | 0.00 | 0.00 | 0.00 | 70 | 1005.5 |
| 20260506170830 | 21 | 240 | 14.5 | 25.7 | 0.00 | 0.00 | 0.00 | 69 | 1005.8 |
| 20260506170329 | 21 | 181 | 16.1 | 33.8 | 0.00 | 0.00 | 0.00 | 69 | 1006.0 |
| 20260506170109 | 21 | 218 | 12.9 | 33.8 | 0.00 | 0.00 | 0.00 | 68 | 1006.1 |
| 20260506165331 | 21 | 185 | 9.7 | 22.5 | 0.00 | 0.00 | 0.00 | 68 | 1006.3 |
| 20260506164830 | 21 | 193 | 11.3 | 24.1 | 0.00 | 0.00 | 0.00 | 69 | 1006.5 |
| 20260506164331 | 21 | 228 | 12.9 | 25.7 | 0.00 | 0.00 | 0.00 | 69 | 1006.6 |
| 20260506163830 | 21 | 190 | 12.9 | 25.7 | 0.00 | 0.00 | 0.00 | 68 | 1006.7 |
| 20260506163331 | 21 | 212 | 12.9 | 32.2 | 0.00 | 0.00 | 0.00 | 67 | 1006.6 |
| 20260506163109 | 21 | 227 | 12.9 | 32.2 | 0.00 | 0.00 | 0.00 | 65 | 1006.7 |
| 20260506162331 | 21 | 252 | 16.1 | 30.6 | 0.00 | 0.00 | 0.00 | 66 | 1006.9 |
| 20260506161831 | 21 | 182 | 19.3 | 40.2 | 0.00 | 0.00 | 0.00 | 63 | 1007.0 |
| 20260506161330 | 22 | 223 | 19.3 | 40.2 | 0.00 | 0.00 | 0.00 | 62 | 1007.1 |
| 20260506161110 | 22 | 219 | 14.5 | 33.8 | 0.00 | 0.00 | 0.00 | 61 | 1007.0 |
| 20260506160329 | 22 | 211 | 14.5 | 32.2 | 0.00 | 0.00 | 0.00 | 57 | 1007.1 |
| 20260506155830 | 22 | 168 | 17.7 | 33.8 | 0.00 | 0.00 | 0.00 | 56 | 1007.0 |
| 20260506155330 | 22 | 194 | 19.3 | 43.5 | 0.00 | 0.00 | 0.00 | 56 | 1006.9 |
| 20260506154828 | 23 | 201 | 19.3 | 43.5 | 0.00 | 0.00 | 0.00 | 56 | 1007.0 |
| 20260506154329 | 23 | 252 | 17.7 | 32.2 | 0.00 | 0.00 | 0.00 | 56 | 1007.0 |
| 20260506153828 | 22 | 221 | 17.7 | 32.2 | 0.00 | 0.00 | 0.00 | 56 | 1006.9 |
| 20260506153329 | 22 | 221 | 16.1 | 41.8 | 0.00 | 0.00 | 0.00 | 57 | 1006.9 |
| 20260506152829 | 22 | 200 | 16.1 | 41.8 | 0.00 | 0.00 | 0.00 | 56 | 1006.8 |
| 20260506152329 | 22 | 242 | 19.3 | 38.6 | 0.00 | 0.00 | 0.00 | 57 | 1006.9 |
| 20260506152114 | 22 | 238 | 20.9 | 41.8 | 0.00 | 0.00 | 0.00 | 56 | 1006.9 |
| 20260506151329 | 22 | 198 | 22.5 | 41.8 | 0.00 | 0.00 | 0.00 | 56 | 1007.1 |
| 20260506150830 | 22 | 221 | 24.1 | 43.5 | 0.00 | 0.00 | 0.00 | 55 | 1007.2 |
| 20260506150329 | 23 | 233 | 19.3 | 43.5 | 0.00 | 0.00 | 0.00 | 55 | 1007.1 |
| 20260506150113 | 23 | 203 | 14.5 | 38.6 | 0.00 | 0.00 | 0.00 | 56 | 1007.1 |
| 20260506145329 | 23 | 193 | 16.1 | 38.6 | 0.00 | 0.00 | 0.00 | 56 | 1007.0 |
| 20260506144830 | 23 | 218 | 14.5 | 32.2 | 0.00 | 0.00 | 0.00 | 56 | 1007.0 |
| 20260506144328 | 23 | 201 | 14.5 | 33.8 | 0.00 | 0.00 | 0.00 | 56 | 1007.0 |
| 20260506143829 | 23 | 198 | 12.9 | 33.8 | 0.00 | 0.00 | 0.00 | 57 | 1006.9 |
| 20260506143330 | 23 | 193 | 11.3 | 24.1 | 0.00 | 0.00 | 0.00 | 58 | 1006.8 |
| 20260506143116 | 23 | 207 | 14.5 | 32.2 | 0.00 | 0.00 | 0.00 | 58 | 1006.8 |
| 20260506142330 | 22 | 232 | 16.1 | 32.2 | 0.00 | 0.00 | 0.00 | 58 | 1006.7 |
| 20260506141831 | 22 | 234 | 16.1 | 33.8 | 0.00 | 0.00 | 0.00 | 58 | 1006.8 |
| 20260506141330 | 22 | 198 | 16.1 | 33.8 | 0.00 | 0.00 | 0.00 | 58 | 1006.7 |
| 20260506140831 | 22 | 196 | 16.1 | 40.2 | 0.00 | 0.00 | 0.00 | 59 | 1006.6 |
| 20260506140328 | 22 | 211 | 14.5 | 40.2 | 0.00 | 0.00 | 0.00 | 59 | 1006.6 |
| 20260506135829 | 22 | 234 | 14.5 | 32.2 | 0.00 | 0.00 | 0.00 | 60 | 1006.7 |
| 20260506135329 | 22 | 201 | 17.7 | 32.2 | 0.00 | 0.00 | 0.00 | 60 | 1006.7 |
| 20260506134829 | 22 | 174 | 19.3 | 35.4 | 0.00 | 0.00 | 0.00 | 60 | 1006.7 |
| 20260506134328 | 22 | 194 | 19.3 | 35.4 | 0.00 | 0.00 | 0.00 | 60 | 1006.8 |
| 20260506133828 | 22 | 210 | 17.7 | 41.8 | 0.00 | 0.00 | 0.00 | 61 | 1006.9 |
| 20260506133330 | 22 | 196 | 16.1 | 41.8 | 0.00 | 0.00 | 0.00 | 61 | 1006.9 |
| 20260506132833 | 21 | 200 | 16.1 | 35.4 | 0.00 | 0.00 | 0.00 | 62 | 1007.1 |
| 20260506132335 | 21 | 189 | 17.7 | 35.4 | 0.00 | 0.00 | 0.00 | 64 | 1007.0 |
| 20260506131832 | 21 | 225 | 17.7 | 33.8 | 0.00 | 0.00 | 0.00 | 64 | 1007.2 |
| 20260506131330 | 21 | 200 | 14.5 | 29.0 | 0.00 | 0.00 | 0.00 | 65 | 1007.3 |
| 20260506130829 | 20 | 188 | 16.1 | 35.4 | 0.00 | 0.00 | 0.00 | 65 | 1007.2 |
| 20260506130328 | 20 | 242 | 17.7 | 35.4 | 0.00 | 0.00 | 0.00 | 67 | 1007.2 |
| 20260506125829 | 20 | 202 | 16.1 | 35.4 | 0.00 | 0.00 | 0.00 | 67 | 1007.2 |
| 20260506125612 | 20 | 221 | 14.5 | 30.6 | 0.00 | 0.00 | 0.00 | 67 | 1007.1 |
| 20260506124829 | 20 | 219 | 14.5 | 29.0 | 0.00 | 0.00 | 0.00 | 68 | 1007.1 |
| 20260506124329 | 20 | 205 | 12.9 | 25.7 | 0.00 | 0.00 | 0.00 | 68 | 1007.1 |
| 20260506123830 | 20 | 178 | 12.9 | 29.0 | 0.00 | 0.00 | 0.00 | 68 | 1007.3 |
| 20260506123330 | 20 | 232 | 12.9 | 29.0 | 0.00 | 0.00 | 0.00 | 68 | 1007.2 |
| 20260506123057 | 20 | 152 | 12.9 | 25.7 | 0.00 | 0.00 | 0.00 | 68 | 1007.3 |
| 20260506122310 | 20 | 200 | 12.9 | 29.0 | 0.00 | 0.00 | 0.00 | 68 | 1007.2 |
| 20260506121807 | 20 | 193 | 14.5 | 32.2 | 0.00 | 0.00 | 0.00 | 69 | 1007.3 |
| 20260506121307 | 20 | 198 | 14.5 | 32.2 | 0.00 | 0.00 | 0.00 | 69 | 1007.2 |
| 20260506120809 | 20 | 207 | 16.1 | 33.8 | 0.00 | 0.00 | 0.00 | 69 | 1007.3 |
| 20260506120307 | 19 | 190 | 16.1 | 33.8 | 0.00 | 0.00 | 0.00 | 69 | 1007.5 |
| 20260506115807 | 19 | 182 | 17.7 | 35.4 | 0.00 | 0.00 | 0.00 | 70 | 1007.6 |
| 20260506115307 | 19 | 215 | 17.7 | 35.4 | 0.00 | 0.00 | 0.00 | 70 | 1007.5 |
| 20260506115047 | 19 | 186 | 16.1 | 32.2 | 0.00 | 0.00 | 0.00 | 71 | 1007.6 |
| 20260506114304 | 18 | 220 | 16.1 | 32.2 | 0.00 | 0.00 | 0.00 | 71 | 1007.6 |
| 20260506113804 | 18 | 173 | 16.1 | 32.2 | 0.00 | 0.00 | 0.00 | 72 | 1007.5 |
| 20260506113304 | 18 | 188 | 17.7 | 32.2 | 0.00 | 0.00 | 0.00 | 73 | 1007.5 |
| 20260506112803 | 18 | 153 | 16.1 | 32.2 | 0.00 | 0.00 | 0.00 | 73 | 1007.6 |
| 20260506112305 | 18 | 190 | 16.1 | 32.2 | 0.00 | 0.00 | 0.00 | 74 | 1007.5 |
| 20260506111801 | 18 | 215 | 17.7 | 40.2 | 0.00 | 0.00 | 0.00 | 74 | 1007.6 |
| 20260506111303 | 18 | 176 | 17.7 | 40.2 | 0.00 | 0.00 | 0.00 | 74 | 1007.7 |
| 20260506110802 | 18 | 161 | 17.7 | 37.0 | 0.00 | 0.00 | 0.00 | 75 | 1007.5 |
| 20260506110303 | 18 | 185 | 16.1 | 37.0 | 0.00 | 0.00 | 0.00 | 75 | 1007.4 |
| 20260506105801 | 17 | 205 | 14.5 | 30.6 | 0.00 | 0.00 | 0.00 | 75 | 1007.4 |
| 20260506105304 | 17 | 185 | 14.5 | 37.0 | 0.00 | 0.00 | 0.00 | 76 | 1007.4 |
| 20260506104803 | 17 | 164 | 17.7 | 43.5 | 0.00 | 0.00 | 0.00 | 76 | 1007.4 |
| 20260506104302 | 17 | 208 | 17.7 | 43.5 | 0.00 | 0.00 | 0.00 | 76 | 1007.4 |
| 20260506103803 | 17 | 213 | 16.1 | 30.6 | 0.00 | 0.00 | 0.00 | 76 | 1007.4 |
| 20260506103302 | 17 | 185 | 14.5 | 30.6 | 0.00 | 0.00 | 0.00 | 76 | 1007.5 |
| 20260506102802 | 17 | 182 | 12.9 | 30.6 | 0.00 | 0.00 | 0.00 | 76 | 1007.3 |
| 20260506102301 | 17 | 184 | 14.5 | 30.6 | 0.00 | 0.00 | 0.00 | 76 | 1007.4 |
| 20260506101801 | 17 | 188 | 16.1 | 30.6 | 0.00 | 0.00 | 0.00 | 76 | 1007.3 |
| 20260506101301 | 17 | 181 | 16.1 | 30.6 | 0.00 | 0.00 | 0.00 | 76 | 1007.2 |
| 20260506100801 | 17 | 205 | 14.5 | 29.0 | 0.00 | 0.00 | 0.00 | 76 | 1007.2 |
| 20260506100302 | 17 | 192 | 16.1 | 33.8 | 0.00 | 0.00 | 0.00 | 76 | 1007.3 |
| 20260506095802 | 17 | 221 | 16.1 | 33.8 | 0.00 | 0.00 | 0.00 | 76 | 1007.2 |
| 20260506095301 | 18 | 196 | 14.5 | 32.2 | 0.00 | 0.00 | 0.00 | 76 | 1007.0 |
| 20260506094802 | 18 | 164 | 14.5 | 27.4 | 0.00 | 0.00 | 0.00 | 76 | 1007.1 |
| 20260506094302 | 18 | 209 | 16.1 | 40.2 | 0.00 | 0.00 | 0.00 | 76 | 1007.2 |
| 20260506093803 | 18 | 217 | 16.1 | 40.2 | 0.00 | 0.00 | 0.00 | 76 | 1007.1 |
| 20260506093619 | 18 | 200 | 14.5 | 30.6 | 0.00 | 0.00 | 0.00 | 76 | 1007.1 |
| 20260506093322 | 18 | 190 | 14.5 | 29.0 | 0.00 | 0.00 | 0.00 | 76 | 1007.1 |
| 20260506092302 | 18 | 187 | 12.9 | 30.6 | 0.00 | 0.00 | 0.00 | 75 | 1007.3 |
| 20260506091802 | 18 | 194 | 12.9 | 29.0 | 0.00 | 0.00 | 0.00 | 75 | 1007.3 |
| 20260506091302 | 18 | 291 | 14.5 | 29.0 | 0.00 | 0.00 | 0.00 | 75 | 1007.3 |
| 20260506090803 | 18 | 230 | 12.9 | 25.7 | 0.00 | 0.00 | 0.00 | 75 | 1007.3 |
| 20260506090301 | 18 | 199 | 14.5 | 29.0 | 0.00 | 0.00 | 0.00 | 75 | 1007.4 |
| 20260506085801 | 18 | 225 | 16.1 | 35.4 | 0.00 | 0.00 | 0.00 | 75 | 1007.4 |
| 20260506085300 | 18 | 183 | 14.5 | 35.4 | 0.00 | 0.00 | 0.00 | 75 | 1007.5 |
| 20260506084801 | 18 | 185 | 12.9 | 30.6 | 0.00 | 0.00 | 0.00 | 75 | 1007.5 |
| 20260506084302 | 18 | 189 | 12.9 | 30.6 | 0.00 | 0.00 | 0.00 | 75 | 1007.5 |
| 20260506083802 | 18 | 198 | 12.9 | 30.6 | 0.00 | 0.00 | 0.00 | 75 | 1007.6 |
| 20260506083302 | 18 | 204 | 12.9 | 30.6 | 0.00 | 0.00 | 0.00 | 74 | 1007.6 |
| 20260506082801 | 18 | 240 | 12.9 | 25.7 | 0.00 | 0.00 | 0.00 | 74 | 1007.6 |
| 20260506082301 | 18 | 198 | 12.9 | 24.1 | 0.00 | 0.00 | 0.00 | 74 | 1007.7 |
| 20260506082045 | 18 | 207 | 12.9 | 27.4 | 0.00 | 0.00 | 0.00 | 74 | 1007.7 |
| 20260506081307 | 18 | 214 | 12.9 | 27.4 | 0.00 | 0.00 | 0.00 | 74 | 1007.7 |
| 20260506080801 | 18 | 203 | 12.9 | 29.0 | 0.00 | 0.00 | 0.00 | 74 | 1007.7 |
| 20260506080301 | 18 | 204 | 14.5 | 32.2 | 0.00 | 0.00 | 0.00 | 74 | 1007.6 |
| 20260506073300 | 18 | 246 | 12.9 | 25.7 | 0.00 | 0.00 | 0.00 | 74 | 1007.6 |
| 20260506072802 | 18 | 209 | 12.9 | 30.6 | 0.00 | 0.00 | 0.00 | 73 | 1007.7 |
| 20260506072301 | 18 | 186 | 14.5 | 30.6 | 0.00 | 0.00 | 0.00 | 73 | 1007.8 |
| 20260506071801 | 18 | 220 | 12.9 | 27.4 | 0.00 | 0.00 | 0.00 | 73 | 1007.9 |
| 20260506071303 | 18 | 205 | 14.5 | 35.4 | 0.00 | 0.00 | 0.00 | 73 | 1007.9 |
| 20260506071042 | 18 | 236 | 16.1 | 35.4 | 0.00 | 0.00 | 0.00 | 73 | 1007.8 |
| 20260506070540 | 18 | 254 | 14.5 | 27.4 | 0.00 | 0.00 | 0.00 | 73 | 1007.8 |
| 20260506062257 | 19 | 202 | 14.5 | 33.8 | 0.00 | 0.00 | 0.00 | 70 | 1007.8 |
| 20260506061756 | 19 | 194 | 14.5 | 33.8 | 0.00 | 0.00 | 0.00 | 70 | 1007.8 |
| 20260506061257 | 19 | 202 | 11.3 | 29.0 | 0.00 | 0.00 | 0.00 | 70 | 1007.8 |
| 20260506061027 | 19 | 191 | 12.9 | 27.4 | 0.00 | 0.00 | 0.00 | 69 | 1007.8 |
| 20260506060515 | 19 | 198 | 14.5 | 30.6 | 0.00 | 0.00 | 0.00 | 69 | 1007.8 |
| 20260506051229 | 20 | 144 | 16.1 | 35.4 | 0.00 | 0.00 | 0.00 | 65 | 1008.1 |
| 20260506050729 | 20 | 181 | 16.1 | 35.4 | 0.00 | 0.00 | 0.00 | 64 | 1008.0 |
| 20260506050229 | 20 | 190 | 14.5 | 29.0 | 0.00 | 0.00 | 0.00 | 64 | 1008.0 |
| 20260506044728 | 20 | 194 | 16.1 | 38.6 | 0.00 | 0.00 | 0.00 | 64 | 1008.1 |
| 20260506044229 | 20 | 233 | 16.1 | 38.6 | 0.00 | 0.00 | 0.00 | 64 | 1008.0 |
| 20260506044011 | 20 | 202 | 16.1 | 32.2 | 0.00 | 0.00 | 0.00 | 63 | 1008.0 |
| 20260506043230 | 20 | 221 | 16.1 | 30.6 | 0.00 | 0.00 | 0.00 | 63 | 1008.1 |
| 20260506042730 | 20 | 185 | 16.1 | 30.6 | 0.00 | 0.00 | 0.00 | 63 | 1008.1 |
| 20260506042229 | 20 | 208 | 16.1 | 32.2 | 0.00 | 0.00 | 0.00 | 63 | 1008.1 |
| 20260506041728 | 21 | 176 | 17.7 | 35.4 | 0.00 | 0.00 | 0.00 | 63 | 1008.0 |
| 20260506041229 | 21 | 191 | 17.7 | 35.4 | 0.00 | 0.00 | 0.00 | 62 | 1008.0 |
| 20260506040729 | 21 | 160 | 17.7 | 45.1 | 0.00 | 0.00 | 0.00 | 62 | 1008.0 |
| 20260506040517 | 21 | 221 | 17.7 | 45.1 | 0.00 | 0.00 | 0.00 | 62 | 1008.0 |
| 20260506035729 | 21 | 224 | 14.5 | 38.6 | 0.00 | 0.00 | 0.00 | 61 | 1008.0 |
| 20260506035229 | 21 | 253 | 14.5 | 27.4 | 0.00 | 0.00 | 0.00 | 61 | 1008.0 |
| 20260506034729 | 21 | 203 | 14.5 | 32.2 | 0.00 | 0.00 | 0.00 | 61 | 1008.0 |
| 20260506034229 | 21 | 205 | 16.1 | 32.2 | 0.00 | 0.00 | 0.00 | 61 | 1008.0 |
| 20260506033729 | 21 | 180 | 19.3 | 41.8 | 0.00 | 0.00 | 0.00 | 60 | 1008.0 |
| 20260506033229 | 21 | 217 | 20.9 | 43.5 | 0.00 | 0.00 | 0.00 | 60 | 1008.0 |
| 20260506033017 | 21 | 140 | 19.3 | 43.5 | 0.00 | 0.00 | 0.00 | 60 | 1007.9 |
| 20260506032514 | 21 | 191 | 16.1 | 38.6 | 0.00 | 0.00 | 0.00 | 60 | 1007.9 |
| 20260506031730 | 21 | 237 | 19.3 | 38.6 | 0.00 | 0.00 | 0.00 | 60 | 1007.8 |
| 20260506031229 | 21 | 204 | 20.9 | 38.6 | 0.00 | 0.00 | 0.00 | 59 | 1007.8 |
| 20260506031019 | 21 | 236 | 19.3 | 37.0 | 0.00 | 0.00 | 0.00 | 59 | 1007.9 |
| 20260506030229 | 21 | 175 | 17.7 | 37.0 | 0.00 | 0.00 | 0.00 | 59 | 1007.9 |
| 20260506025730 | 21 | 191 | 17.7 | 40.2 | 0.00 | 0.00 | 0.00 | 58 | 1007.9 |
| 20260506025229 | 21 | 178 | 19.3 | 46.7 | 0.00 | 0.00 | 0.00 | 58 | 1007.8 |
| 20260506024729 | 21 | 130 | 19.3 | 46.7 | 0.00 | 0.00 | 0.00 | 58 | 1007.9 |
| 20260506024229 | 21 | 244 | 17.7 | 35.4 | 0.00 | 0.00 | 0.00 | 57 | 1007.9 |
| 20260506024020 | 21 | 185 | 14.5 | 33.8 | 0.00 | 0.00 | 0.00 | 57 | 1007.9 |
| 20260506023230 | 21 | 222 | 14.5 | 32.2 | 0.00 | 0.00 | 0.00 | 57 | 1008.0 |
| 20260506022729 | 21 | 230 | 17.7 | 33.8 | 0.00 | 0.00 | 0.00 | 56 | 1007.9 |
| 20260506022229 | 21 | 198 | 19.3 | 40.2 | 0.00 | 0.00 | 0.00 | 56 | 1008.0 |
| 20260506021728 | 21 | 200 | 19.3 | 40.2 | 0.00 | 0.00 | 0.00 | 56 | 1007.9 |
| 20260506021551 | 21 | 168 | 20.9 | 40.2 | 0.00 | 0.00 | 0.00 | 55 | 1007.8 |
| 20260506021253 | 21 | 187 | 19.3 | 33.8 | 0.00 | 0.00 | 0.00 | 55 | 1007.8 |
| 20260506020230 | 21 | 203 | 19.3 | 40.2 | 0.00 | 0.00 | 0.00 | 55 | 1007.8 |
| 20260506015730 | 21 | 218 | 16.1 | 35.4 | 0.00 | 0.00 | 0.00 | 55 | 1007.7 |
| 20260506015230 | 21 | 225 | 14.5 | 38.6 | 0.00 | 0.00 | 0.00 | 55 | 1007.8 |
| 20260506014728 | 21 | 195 | 17.7 | 38.6 | 0.00 | 0.00 | 0.00 | 55 | 1007.8 |
| 20260506014229 | 21 | 165 | 17.7 | 35.4 | 0.00 | 0.00 | 0.00 | 55 | 1007.7 |
| 20260506013729 | 21 | 185 | 19.3 | 43.5 | 0.00 | 0.00 | 0.00 | 54 | 1007.5 |
| 20260506013516 | 21 | 154 | 20.9 | 43.5 | 0.00 | 0.00 | 0.00 | 54 | 1007.6 |
| 20260506012802 | 22 | 194 | 19.3 | 41.8 | 0.00 | 0.00 | 0.00 | 54 | 1007.5 |
| 20260506012750 | 21 | 193 | 19.3 | 40.2 | 0.00 | 0.00 | 0.00 | 54 | 1007.6 |
| 20260506012016 | 22 | 215 | 20.9 | 41.8 | 0.00 | 0.00 | 0.00 | 54 | 1007.4 |
| 20260506011229 | 22 | 184 | 20.9 | 49.9 | 0.00 | 0.00 | 0.00 | 54 | 1007.3 |
| 20260506010730 | 22 | 193 | 20.9 | 49.9 | 0.00 | 0.00 | 0.00 | 53 | 1007.3 |
| 20260506010230 | 22 | 240 | 16.1 | 30.6 | 0.00 | 0.00 | 0.00 | 53 | 1007.3 |
| 20260506005730 | 22 | 194 | 14.5 | 35.4 | 0.00 | 0.00 | 0.00 | 53 | 1007.3 |
| 20260506005515 | 22 | 215 | 16.1 | 35.4 | 0.00 | 0.00 | 0.00 | 52 | 1007.2 |
| 20260506004729 | 22 | 186 | 16.1 | 32.2 | 0.00 | 0.00 | 0.00 | 52 | 1007.3 |
| 20260506004229 | 22 | 198 | 14.5 | 33.8 | 0.00 | 0.00 | 0.00 | 52 | 1007.2 |
| 20260506003729 | 23 | 189 | 16.1 | 33.8 | 0.00 | 0.00 | 0.00 | 51 | 1007.1 |
| 20260506003517 | 23 | 183 | 16.1 | 38.6 | 0.00 | 0.00 | 0.00 | 50 | 1007.1 |
| 20260506002728 | 23 | 202 | 16.1 | 38.6 | 0.00 | 0.00 | 0.00 | 50 | 1007.1 |
| 20260506002230 | 23 | 198 | 17.7 | 35.4 | 0.00 | 0.00 | 0.00 | 50 | 1007.2 |
| 20260506002019 | 23 | 196 | 16.1 | 35.4 | 0.00 | 0.00 | 0.00 | 49 | 1007.1 |
| 20260506001228 | 23 | 182 | 12.9 | 30.6 | 0.00 | 0.00 | 0.00 | 49 | 1007.1 |
| 20260506000729 | 23 | 215 | 12.9 | 30.6 | 0.00 | 0.00 | 0.00 | 48 | 1007.0 |
| 20260506000516 | 24 | 182 | 12.9 | 37.0 | 0.00 | 0.00 | 0.00 | 47 | 1006.8 |
| 20260505235729 | 24 | 190 | 12.9 | 37.0 | 0.00 | 0.00 | 0.00 | 46 | 1006.7 |
| 20260505235229 | 25 | 197 | 12.9 | 25.7 | 0.00 | 0.00 | 0.00 | 45 | 1006.7 |
| 20260505234734 | 25 | 211 | 12.9 | 32.2 | 0.00 | 0.00 | 0.00 | 44 | 1006.7 |
| 20260505234229 | 26 | 225 | 16.1 | 33.8 | 0.00 | 0.00 | 0.00 | 42 | 1006.6 |
| 20260505233731 | 26 | 185 | 17.7 | 33.8 | 0.00 | 0.00 | 0.00 | 39 | 1006.6 |
| 20260505233231 | 26 | 191 | 16.1 | 29.0 | 0.00 | 0.00 | 0.00 | 38 | 1006.5 |
| 20260505232731 | 26 | 184 | 17.7 | 32.2 | 0.00 | 0.00 | 0.00 | 38 | 1006.4 |
| 20260505232230 | 26 | 238 | 16.1 | 32.2 | 0.00 | 0.00 | 0.00 | 38 | 1006.3 |
| 20260505231729 | 26 | 219 | 16.1 | 30.6 | 0.00 | 0.00 | 0.00 | 38 | 1006.3 |
| 20260505231229 | 26 | 208 | 12.9 | 30.6 | 0.00 | 0.00 | 0.00 | 38 | 1006.2 |
| 20260505230731 | 26 | 182 | 12.9 | 27.4 | 0.00 | 0.00 | 0.00 | 38 | 1006.2 |
| 20260505230229 | 27 | 190 | 16.1 | 30.6 | 0.00 | 0.00 | 0.00 | 38 | 1006.1 |
| 20260505225730 | 27 | 214 | 17.7 | 35.4 | 0.00 | 0.00 | 0.00 | 38 | 1006.2 |
| 20260505225229 | 27 | 192 | 14.5 | 35.4 | 0.00 | 0.00 | 0.00 | 37 | 1006.1 |
| 20260505224728 | 27 | 197 | 12.9 | 30.6 | 0.00 | 0.00 | 0.00 | 38 | 1006.0 |
| 20260505224510 | 27 | 220 | 16.1 | 40.2 | 0.00 | 0.00 | 0.00 | 37 | 1006.1 |
| 20260505224012 | 27 | 153 | 16.1 | 40.2 | 0.00 | 0.00 | 0.00 | 37 | 1006.0 |
| 20260505223229 | 27 | 206 | 12.9 | 30.6 | 0.00 | 0.00 | 0.00 | 37 | 1005.9 |
| 20260505222729 | 28 | 182 | 12.9 | 32.2 | 0.00 | 0.00 | 0.00 | 37 | 1005.9 |
| 20260505222230 | 28 | 177 | 14.5 | 32.2 | 0.00 | 0.00 | 0.00 | 35 | 1005.9 |
| 20260505222012 | 28 | 194 | 17.7 | 33.8 | 0.00 | 0.00 | 0.00 | 35 | 1005.7 |
| 20260505221228 | 28 | 195 | 19.3 | 40.2 | 0.00 | 0.00 | 0.00 | 35 | 1005.6 |
| 20260505220730 | 28 | 215 | 24.1 | 46.7 | 0.00 | 0.00 | 0.00 | 31 | 1005.6 |
| 20260505220230 | 28 | 202 | 25.7 | 46.7 | 0.00 | 0.00 | 0.00 | 30 | 1005.8 |
| 20260505215730 | 29 | 237 | 19.3 | 41.8 | 0.00 | 0.00 | 0.00 | 30 | 1005.6 |
| 20260505215230 | 29 | 211 | 16.1 | 32.2 | 0.00 | 0.00 | 0.00 | 29 | 1005.3 |
| 20260505214731 | 29 | 199 | 19.3 | 38.6 | 0.00 | 0.00 | 0.00 | 30 | 1005.4 |
| 20260505214231 | 29 | 241 | 19.3 | 38.6 | 0.00 | 0.00 | 0.00 | 30 | 1005.4 |
| 20260505214014 | 29 | 196 | 20.9 | 40.2 | 0.00 | 0.00 | 0.00 | 30 | 1005.6 |
| 20260505213230 | 29 | 190 | 20.9 | 40.2 | 0.00 | 0.00 | 0.00 | 30 | 1005.5 |
| 20260505212730 | 29 | 213 | 20.9 | 41.8 | 0.00 | 0.00 | 0.00 | 29 | 1005.4 |
| 20260505212231 | 29 | 221 | 20.9 | 43.5 | 0.00 | 0.00 | 0.00 | 28 | 1005.3 |
| 20260505211730 | 29 | 211 | 22.5 | 43.5 | 0.00 | 0.00 | 0.00 | 28 | 1005.3 |
| 20260505211515 | 29 | 188 | 20.9 | 45.1 | 0.00 | 0.00 | 0.00 | 28 | 1005.2 |
| 20260505210730 | 30 | 238 | 20.9 | 49.9 | 0.00 | 0.00 | 0.00 | 28 | 1005.2 |
| 20260505210230 | 30 | 198 | 20.9 | 49.9 | 0.00 | 0.00 | 0.00 | 28 | 1005.1 |
| 20260505205730 | 30 | 222 | 17.7 | 35.4 | 0.00 | 0.00 | 0.00 | 29 | 1005.3 |
| 20260505205231 | 30 | 200 | 14.5 | 32.2 | 0.00 | 0.00 | 0.00 | 28 | 1005.0 |
| 20260505205012 | 30 | 185 | 16.1 | 41.8 | 0.00 | 0.00 | 0.00 | 29 | 1005.1 |
| 20260505204230 | 30 | 214 | 19.3 | 41.8 | 0.00 | 0.00 | 0.00 | 27 | 1005.3 |
| 20260505203731 | 30 | 229 | 20.9 | 35.4 | 0.00 | 0.00 | 0.00 | 27 | 1005.2 |
| 20260505203231 | 30 | 201 | 22.5 | 43.5 | 0.00 | 0.00 | 0.00 | 28 | 1005.2 |
| 20260505202731 | 30 | 260 | 22.5 | 43.5 | 0.00 | 0.00 | 0.00 | 28 | 1005.2 |
| 20260505202228 | 30 | 219 | 20.9 | 33.8 | 0.00 | 0.00 | 0.00 | 28 | 1005.2 |
| 20260505201730 | 30 | 238 | 19.3 | 35.4 | 0.00 | 0.00 | 0.00 | 28 | 1005.3 |
| 20260505201229 | 30 | 200 | 20.9 | 41.8 | 0.00 | 0.00 | 0.00 | 26 | 1005.2 |
| 20260505200728 | 30 | 236 | 19.3 | 41.8 | 0.00 | 0.00 | 0.00 | 27 | 1005.2 |
| 20260505200230 | 30 | 217 | 20.9 | 45.1 | 0.00 | 0.00 | 0.00 | 27 | 1005.2 |
| 20260505195730 | 30 | 205 | 24.1 | 49.9 | 0.00 | 0.00 | 0.00 | 26 | 1005.3 |
| 20260505195230 | 30 | 214 | 20.9 | 49.9 | 0.00 | 0.00 | 0.00 | 25 | 1005.4 |
| 20260505194730 | 30 | 206 | 17.7 | 35.4 | 0.00 | 0.00 | 0.00 | 27 | 1005.3 |
| 20260505194229 | 30 | 218 | 19.3 | 40.2 | 0.00 | 0.00 | 0.00 | 26 | 1005.3 |
| 20260505193730 | 30 | 178 | 22.5 | 48.3 | 0.00 | 0.00 | 0.00 | 27 | 1005.4 |
| 20260505193228 | 30 | 228 | 22.5 | 48.3 | 0.00 | 0.00 | 0.00 | 26 | 1005.6 |